Miscellaneous Local Product
Issued by NWS Hastings, NE

Home | Current Version | Previous Version | Graphics & Text | Print | Product List | Glossary On
Versions: 1 2 3 4 5 6 7 8 9 10 11 12 13 14 15 16 17 18 19 20 21 22 23 24 25 26 27 28 29 30 31 32 33 34 35 36 37 38 39 40 41 42 43 44 45 46 47 48 49 50
000
AXUS43 KGID 090302
MISGRI

GID CWA HOURLY WEATHER ROUNDUP
NATIONAL WEATHER SERVICE HASTINGS NE
900 PM CST THU DEC 08 2016

NOTE: "FAIR" INDICATES FEW OR NO CLOUDS BELOW 12,000 FEET WITH NO
SIGNIFICANT WEATHER AND/OR OBSTRUCTIONS TO VISIBILITY.

...SOUTH CENTRAL NEBRASKA...

CITY           SKY/WX    TMP DP  RH WIND       PRES   REMARKS
GRAND ISLAND   CLEAR      9   2  73 NW3       30.60F
HASTINGS       CLEAR     11   3  70 CALM      30.60F
KEARNEY        CLEAR     10   0  61 CALM      30.58F
ORD            CLEAR      2  -4  76 CALM      30.58F
YORK           CLEAR      9   3  78 CALM      30.62S
AURORA         CLEAR      9   1  70 NW5       30.60F WCI   0
LEXINGTON      CLOUDY     9   2  71 CALM      30.55F
HOLDREGE       CLEAR     12   2  65 CALM      30.56F
HEBRON         CLEAR     12   6  79 CALM      30.65S

...NEBRASKA PANHANDLE...

CITY           SKY/WX    TMP DP  RH WIND       PRES   REMARKS
CHADRON        CLOUDY    -1  -8  72 N3        30.40F
ALLIANCE       CLOUDY     3  -3  76 S13       30.36F WCI -14
SCOTTSBLUFF    CLOUDY     4  -3  73 E6        30.35F WCI  -7
SIDNEY         CLOUDY     4  -2  76 S9        30.35F WCI -10

...WESTERN AND NORTH CENTRAL NEBRASKA...

CITY           SKY/WX    TMP DP  RH WIND       PRES   REMARKS
VALENTINE      CLOUDY    -1  -7  75 CALM      30.52F
AINSWORTH      CLEAR      4  -3  74 CALM      30.52F
ONEILL         CLEAR      5   0  78 NW6       30.59F WCI  -6
BROKEN BOW     CLEAR      3  -3  76 CALM      30.53F
IMPERIAL       CLOUDY     3  -3  76 S5        30.48F WCI  -6
NORTH PLATTE   CLOUDY     4  -2  76 CALM      30.52F
MCCOOK         CLOUDY     2  -2  83 SW8       30.55F WCI -12

...EASTERN NEBRASKA...

CITY           SKY/WX    TMP DP  RH WIND       PRES   REMARKS
NORFOLK        CLEAR      8   0  69 W6        30.62S WCI  -2
SO SIOUX CITY  CLEAR     15   7  70 NW9       30.64S WCI   3
TEKAMAH        CLEAR     14   6  70 NW10      30.65R WCI   1
COLUMBUS       CLEAR     12   1  62 NW5       30.62F WCI   4
ALBION         CLEAR      6  -1  73 NW5       30.61S WCI  -3
OMAHA EPPLEY   CLEAR     14   6  70 NW8       30.65R WCI   3
OFFUTT AFB     CLEAR     17   7  65 NW9       30.64S WCI   6
MILLARD        CLEAR     20  10  64 NW5       30.65S WCI  13
LINCOLN        CLEAR     12   5  73 N3        30.66S
NEBRASKA CITY  CLEAR     16   6  63 NW6       30.63S WCI   8
BEATRICE       CLEAR     13   6  73 CALM      30.64S
FALLS CITY     CLEAR     14   8  77 NW6       30.65R WCI   5

...NORTHERN KANSAS...

CITY           SKY/WX    TMP DP  RH WIND       PRES   REMARKS
GOODLAND       CLOUDY     8   1  73 S9        30.45F WCI  -5
HILL CITY      CLOUDY     2  -3  80 CALM      30.59F
NORTON         CLEAR      9   0  66 CALM      30.57F
PHILLIPSBURG   CLEAR      7   1  78 NW6       30.62F WCI  -3
SMITH CENTER   CLEAR     10   3  72 CALM      30.63F
BELOIT         CLEAR     12   7  79 CALM      30.65F
HAYS           CLOUDY    11   5  77 CALM      30.62F
RUSSELL        CLEAR     14   6  70 N5        30.62F WCI   6
CONCORDIA      CLEAR     16   7  67 CALM      30.64S
SALINA         CLEAR     16   8  71 W8        30.67S WCI   5
TOPEKA         CLEAR     19  10  68 W3        30.67R



USA.gov is the U.S. government's official web portal to all federal, state and local government web resources and services.